Вернуться в каталог

STARLINK-37251

АктивенСвязьVLEO
NORAD 68514·PAYLOAD·🇺🇸 United States

Запущен Mar 30, 2026 с Cape Canaveral Space Force Station

Loading…

Ближайшие Пролёты (ближайшие 24 часа)

TLE

СвежийSource: CelesTrak SupGP

Эпоха: Sep 15, 2026, 03:04 UTC

1 68514C 26068G   26258.12826389  .00052310  00000+0  15457-2 0  2580
2 68514  53.1584 325.0741 0001249  96.8270 106.0658 15.34360865    10

Отслеживайте STARLINK-37251 в реальном времени с AllMySat

Download on the App Store